Location: Demmingen
(48.6757°N, 10.4375°E)
Time: 09:44:36
(UTC+00:00)

USA 267 - Pass Details

Date: 15 August 2024
Orbit: 1096 x 1111 km, 123.1° (Epoch: 03 September)

Event Time Altitude Azimuth Distance (km) Brightness Sun altitude
Rises 19:21:59 0° 165° (SSE) 3,904 5.7 -8.1°
Reaches altitude 10° 19:24:55 10° 177° (S) 2,952 5.2 -8.5°
Maximum altitude 19:30:16 27° 233° (SW) 1,988 4.9 -9.3°
Drops below altitude 10° 19:35:40 10° 289° (WNW) 2,973 6.9 -10.0°
Sets 19:38:38 0° 301° (WNW) 3,937 8.4 -10.4°
